sat.trackr.live / text

‹ back to catalog

SBIRS GEO-5 (USA 315)

NORAD 48618 · 2021-042A

PAYLOAD ACTIVE UNKNOWN

§ Identity

Operator
Country
US
Launch date
2021-05-18
Launch site
AFETR
Launch vehicle
Mass (kg)
RCS (m²)

Purposes: comms

External: N2YO · Heavens-Above · Gunter

§ Orbital elements

Epoch: 2026-05-24T12:47:00.383712Z

Period
1,436.10 min
Inclination
5.1333°
Eccentricity
0.0001490
Mean motion
1.00271417 rev/d
Perigee alt
35,780.4 km
Apogee alt
35,793.0 km
Semi-major
42,164.8 km
B*
0.0000e+0
RAAN
328.9636°
Arg perigee
90.6240°
Mean anomaly
108.0970°
Rev number
1,853

§ Raw data

SBIRS GEO-5 (USA 315)1 48618U 21042A   26144.53264333 -.00000280  00000+0  00000+0 0  99912 48618   5.1333 328.9636 0001490  90.6240 108.0970  1.00271417 18531

JSON: /api/v1/satellites/48618 · /tle

For live sub-satellite position, see the globe view (requires WebGL).

§ Visibility from observer

Set your observer location to see the next 7 days of passes ≥ 10°. The values pass through the URL so the page stays shareable.

No JS? Fill the form by hand. The geolocation button needs JavaScript.